Hof Plauen, Germany

9:11 AM CET on February 20, 2018 (GMT +0100)
Hof-Plauen

Weather History for EDQM - September, 2012

Change the Weather History Date:

Wednesday, September 5, 2012

  Actual Average Record
Temperature  
Mean Temperature 58 °F -  
Max Temperature 70 °F 58 °F 77 °F (1997)
Min Temperature 47 °F 44 °F 37 °F (2003)
Degree Days  
Heating Degree Days 6    
Growing Degree Days 8 (Base 50)    
Moisture  
Dew Point 51 °F    
Average Humidity 79    
Maximum Humidity 98    
Minimum Humidity 42    
Precipitation  
Precipitation 0.02 in - - ()
Sea Level Pressure  
Sea Level Pressure 30.14 in    
Wind  
Wind Speed 3 mph ()    
Max Wind Speed 12 mph    
Max Gust Speed -    
Visibility 4.0 miles    
Events Fog , Rain    
Averages and records for this station are not official NWS values.
T = Trace of Precipitation, MM = Missing Value Source: Averaged Metar Reports

Daily Weather History Graph

Daily Weather History Graph

Search for Another Location

Airport or City:

Trip Planner

Search our weather history database for the weather conditions in past years. The results will help you decide how hot, cold, wet, or windy it might be!

Date:

Astronomy

Sep. 05, 2012 Rise Set
Actual Time 6:33 AM CEST 7:47 PM CEST
Civil Twilight 5:59 AM CEST 8:21 PM CEST
Nautical Twilight 5:19 AM CEST 9:01 PM CEST
Astronomical Twilight 4:35 AM CEST 9:45 PM CEST
Moon 9:28 PM CEST (9/5) 11:58 AM CEST (9/5)
Length of Visible Light 14h 21m
Length of Day
13h 14m
Waning Gibbous, 78% of the Moon is Illuminated
Sep 5
Waning Gibbous
Sep 8
Last Quarter
Sep 16
New
Sep 22
First Quarter
Sep 30
Full

Hourly Weather History & Observations

Time (CEST) Temp. Dew Point Humidity Pressure Visibility Wind Dir Wind Speed Gust Speed Precip Events Conditions
12:00 AM 55 °F 52 °F 84% 30.14 in 3 mi WNW 2.2 mph - -   Mist
12:20 AM 51.8 °F 48.2 °F 88% 30.15 in 5.0 mi North 1.2 mph - N/A   Unknown
12:50 AM 51.8 °F 48.2 °F 88% 30.15 in 5.0 mi Calm Calm - N/A   Mist
1:00 AM 55 °F 52 °F 84% 30.14 in 3 mi West 2.2 mph - -   Mist
1:20 AM 50.0 °F 48.2 °F 94% 30.15 in 3.1 mi WNW 2.3 mph - N/A   Mist
1:50 AM 51.8 °F 48.2 °F 88% 30.15 in 3.7 mi North 1.2 mph - N/A   Mist
2:00 AM 53 °F 50 °F 85% 30.14 in 2 mi WNW 2.2 mph - -   Mist
2:20 AM 50.0 °F 46.4 °F 87% 30.15 in 3.1 mi Variable 1.2 mph - N/A   Mist
2:50 AM 50.0 °F 46.4 °F 87% 30.15 in - Calm Calm - N/A   Mist
3:00 AM 52 °F 50 °F 89% 30.14 in 2 mi SSE 2.2 mph - -   Mist
3:20 AM 50.0 °F 46.4 °F 87% 30.15 in 1.7 mi West 2.3 mph - N/A   Mist
3:50 AM 50.0 °F 46.4 °F 87% 30.15 in - Variable 2.3 mph - N/A   Mist
4:00 AM 52 °F 50 °F 91% 30.14 in 2 mi WNW 2.2 mph - -   Mist
4:20 AM 48.2 °F 46.4 °F 93% 30.12 in 0.9 mi Calm Calm - N/A   Mist
4:50 AM 50.0 °F 46.4 °F 87% 30.12 in 1.3 mi Calm Calm - N/A   Mist
5:20 AM 46.4 °F 44.6 °F 93% 30.12 in 1.5 mi Calm Calm - N/A   Mist
5:50 AM 46.4 °F 44.6 °F 93% 30.12 in 1.2 mi Calm Calm - N/A Fog Fog
6:00 AM 49 °F 48 °F 95% 30.14 in 1 mi SSE 2.2 mph - -   Mist
6:20 AM 46.4 °F 44.6 °F 93% 30.12 in - Calm Calm - N/A Fog Fog
6:50 AM 46.4 °F 44.6 °F 93% 30.12 in 0.5 mi Variable 1.2 mph - N/A Fog Shallow Fog
7:00 AM 49 °F 48 °F 95% 30.14 in 1 mi WNW 2.2 mph - -   Mist
7:20 AM 48.2 °F 46.4 °F 93% 30.12 in 0.9 mi Calm Calm - N/A   Mist
7:50 AM 51.8 °F 50.0 °F 94% 30.12 in 1.9 mi South 1.2 mph - N/A   Mist
8:00 AM 52 °F 49 °F 86% 30.12 in 2 mi SSE 2.2 mph - -   Mist
8:20 AM 53.6 °F 48.2 °F 82% 30.12 in 3.1 mi Variable 1.2 mph - N/A   Mist
8:50 AM 57.2 °F 50.0 °F 77% 30.12 in 3.7 mi Calm Calm - N/A   Unknown
9:00 AM 57 °F 52 °F 76% 30.11 in 3 mi SSE 2.2 mph - -   Mist
9:20 AM 62.6 °F 53.6 °F 72% 30.15 in 5.0 mi Variable 1.2 mph - N/A   Unknown
9:50 AM 64.4 °F 53.6 °F 68% 30.15 in - NE 3.5 mph - N/A   Clear
10:00 AM 63 °F 53 °F 62% 30.09 in 6 mi NNE 2.2 mph - -   Scattered Clouds
10:20 AM 66.2 °F 50.0 °F 56% 30.15 in - NE 6.9 mph - N/A   Clear
10:50 AM 66.2 °F 50.0 °F 56% 30.15 in - NNE 5.8 mph - N/A   Clear
11:20 AM 66.2 °F 50.0 °F 56% 30.15 in - NNE 6.9 mph - N/A   Clear
11:50 AM 68.0 °F 50.0 °F 52% 30.15 in - North 6.9 mph - N/A   Clear
12:00 PM 67 °F 52 °F 49% 30.07 in 16 mi North 4.5 mph - -   Scattered Clouds
12:20 PM 69.8 °F 48.2 °F 46% 30.15 in - Variable 5.8 mph - N/A   Clear
12:50 PM 71.6 °F 51.8 °F 50% 30.12 in - Variable 5.8 mph - N/A   Clear
1:00 PM 69 °F 51 °F 42% 30.06 in 19 mi North 4.5 mph - -   Scattered Clouds
1:20 PM 71.6 °F 50.0 °F 46% 30.12 in 6.2 mi Variable 4.6 mph - N/A   Partly Cloudy
1:50 PM 66.2 °F 53.6 °F 64% 30.12 in 6.2 mi North 8.1 mph - N/A   Scattered Clouds
2:00 PM 67 °F 54 °F 54% 30.06 in 16 mi North 6.7 mph - -   Scattered Clouds
2:20 PM 68.0 °F 51.8 °F 56% 30.12 in 6.2 mi NNW 6.9 mph - N/A   Partly Cloudy
2:50 PM 68.0 °F 51.8 °F 56% 30.12 in 6.2 mi North 8.1 mph - N/A   Partly Cloudy
3:20 PM 68.0 °F 51.8 °F 56% 30.12 in - North 8.1 mph - N/A   Clear
3:50 PM 68.0 °F 53.6 °F 60% 30.12 in 6.2 mi North 11.5 mph - N/A   Partly Cloudy
4:20 PM 66.2 °F 53.6 °F 64% 30.12 in 6.2 mi North 10.4 mph - N/A   Partly Cloudy
4:50 PM 62.6 °F 53.6 °F 72% 30.15 in 6.2 mi North 9.2 mph - N/A   Scattered Clouds
5:20 PM 62.6 °F 53.6 °F 72% 30.15 in 6.2 mi North 8.1 mph - N/A   Scattered Clouds
5:50 PM 60.8 °F 53.6 °F 77% 30.15 in 6.2 mi North 9.2 mph - N/A   Mostly Cloudy
6:00 PM 60 °F 56 °F 81% 30.10 in 4 mi North 11.2 mph - -   Mist
6:20 PM 59.0 °F 53.6 °F 82% 30.12 in 5.6 mi North 8.1 mph - N/A Rain Light Rain
6:50 PM 57.2 °F 55.4 °F 94% 30.12 in 1.7 mi North 6.9 mph - N/A Rain Rain
7:00 PM 58 °F 58 °F 98% 30.10 in 2 mi North 4.5 mph - - Rain Light Rain
7:20 PM 59.0 °F 55.4 °F 88% 30.12 in - North 6.9 mph - N/A Rain Light Rain Showers
7:50 PM 59.0 °F 55.4 °F 88% 30.15 in 1.8 mi North 5.8 mph - N/A   Mostly Cloudy
8:00 PM 58 °F 57 °F 94% 30.11 in 2 mi North 6.7 mph - - Rain Light Rain
8:20 PM 57.2 °F 55.4 °F 94% 30.15 in - North 5.8 mph - N/A   Scattered Clouds
8:50 PM 57.2 °F 55.4 °F 94% 30.15 in 1.7 mi North 6.9 mph - N/A   Mostly Cloudy
9:00 PM 58 °F 56 °F 93% 30.14 in 2 mi North 4.5 mph - -   Mist
9:20 PM 57.2 °F 55.4 °F 94% 30.18 in 1.4 mi North 6.9 mph - N/A Rain Rain
9:50 PM 57.2 °F 55.4 °F 94% 30.18 in 1.0 mi North 5.8 mph - N/A Rain Heavy Rain
10:00 PM 57 °F 57 °F 98% 30.15 in 1 mi North 4.5 mph - - Rain Heavy Rain
10:20 PM 55.4 °F 51.8 °F 88% 30.21 in 3.1 mi North 11.5 mph - N/A Rain Rain
10:50 PM 53.6 °F 50.0 °F 88% 30.21 in - North 9.2 mph - N/A   Drizzle
11:20 PM 53.6 °F 50.0 °F 88% 30.21 in 3.7 mi North 8.1 mph - N/A   Drizzle
11:50 PM 53.6 °F 51.8 °F 94% 30.21 in 4.3 mi North 6.9 mph - N/A   Overcast